Location: Unspecified
(25.6470°N, 106.8560°E)
Time: 08:58:15
(UTC+00:00)

Daily predictions for brighter satellites

Satellite Brightness Start Highest point End
(mag) Time Altitude Azimuth Time Altitude Azimuth Time Altitude Azimuth
IUS-9 SRM-1 3.5 12:02:04 10° W 12:05:10 54° S 12:17:16 10° ESE
CZ-3 Stage 3 2.3 12:04:34 10° W 12:06:45 66° NNW 12:12:07 10° ENE
Cosmos 972 Rocket 4.3 12:06:50 10° S 12:11:33 42° E 12:16:08 10° NNE
Cosmos 2263 Rocket 2.4 12:08:49 10° S 12:14:15 48° ESE 12:19:41 10° NNE
OAO 3 Rocket 3.5 12:10:31 10° WSW 12:15:29 76° NNW 12:20:24 10° ENE
Palapa 6 Rocket 4.2 12:13:59 10° SW 12:18:52 40° SSE 12:24:49 10° E
Cosmos 1544 4.3 12:16:01 10° NNW 12:19:26 43° W 12:22:51 10° SSW
GPS 2-17 Rocket1 4.3 12:16:45 10° WSW 12:20:51 29° SSW 12:24:50 10° SE
Cosmos 1606 Rocket 3.7 12:18:31 10° N 12:22:59 83° W 12:27:24 10° S
Aurora 2 Rocket 4.3 12:18:57 10° SW 12:24:27 36° SSE 12:31:58 10° E
Cosmos 1602 Rocket 4.2 12:20:59 10° SSE 12:25:02 35° E 12:29:07 10° NNE
FREGAT/IRIS 4.2 12:23:16 10° SSW 12:25:58 34° W 12:28:41 10° NNW
Resurs 01 Rocket 2.7 12:24:01 10° SE 12:27:46 28° ENE 12:31:30 10° NNE
CZ-2D R/B 3.6 12:28:20 10° S 12:32:11 69° W 12:36:04 10° NNW
HJ-1C 4.4 12:28:56 10° S 12:32:12 46° W 12:35:27 10° NNW
ERS-2 3.6 12:32:38 14° ESE 12:34:45 22° ENE 12:37:36 10° NNE
Cosmos 1470 4.3 12:31:56 10° NNE 12:34:48 20° E 12:36:33 15° ESE
Envisat 3.4 12:32:06 10° S 12:37:07 64° W 12:42:09 10° NNW
Cosmos 1939 Rocket 3.0 12:34:56 10° SSE 12:39:00 62° ENE 12:43:02 10° N
Centaur D-1AR AC-41 3.8 12:37:50 10° WSW 12:41:22 28° SSW 12:43:51 16° SE
Aureole 1 Rocket 4.0 12:43:45 15° E 12:43:45 15° E 12:45:04 10° ENE
Intercosmos 25 2.7 12:40:14 10° S 12:43:28 79° E 12:46:47 10° N
USA 186 1.8 12:42:35 10° S 12:45:59 86° W 12:49:16 10° NNW
OAO 2 Rocket 3.6 12:41:02 10° WNW 12:46:18 67° SSW 12:50:05 19° SE
Cosmos 2058 Rocket 3.3 12:46:19 10° N 12:50:41 71° W 12:55:01 10° S
NOSS 2-3 (D) 4.2 12:46:32 10° SW 12:50:54 63° WNW 12:55:36 10° NNE
SJ-11-01 4.4 12:50:47 16° SSE 12:54:34 62° ENE 12:59:15 10° N
Cosmos 1758 3.2 12:56:00 10° N 13:00:05 80° E 13:02:56 19° S
Meteor 2-11 Rocket 4.4 12:54:28 10° S 13:00:25 61° E 13:06:23 10° NNE
Lacrosse 5 1.8 12:58:42 10° SSW 13:03:43 68° ESE 13:08:44 10° NE
Cosmos 972 4.3 12:59:09 10° S 13:04:21 75° ESE 13:09:14 10° NNE
Cosmos 1371 Rocket 3.9 13:00:54 10° NNW 13:06:05 90° WNW 13:09:41 20° SSE
Cosmos 1943 3.9 13:01:15 10° N 13:06:29 38° ENE 13:08:52 26° ESE
Cosmos 1825 Rocket 4.2 13:06:37 30° SE 13:07:57 37° E 13:12:02 10° NNE
Aureole 1 4.3 13:05:44 10° NNW 13:08:53 79° ENE 13:10:14 35° SSE
GPS 2-15 Rocket1 4.3 13:05:35 10° WSW 13:09:31 26° SSW 13:10:40 24° SSE
Cosmos 1733 3.1 13:06:21 10° N 13:10:07 82° W 13:12:14 25° S
Cosmos 468 4.4 13:05:23 10° S 13:10:38 69° ESE 13:15:57 10° NNE
Cosmos 1315 Rocket 3.6 13:11:26 31° E 13:11:28 31° E 13:15:03 10° NNE
Spot 2 Rocket 3.4 13:09:48 25° SSE 13:12:46 71° ENE 13:17:47 10° N
SL-23 DEB 4.5 13:10:46 10° NW 13:14:48 82° SW 13:18:05 28° SE
CZ-3C R/B 2.8 12:54:40 10° WSW 13:16:35 36° S 13:18:46 28° SE
Meteor 1-24 Rocket 4.5 13:16:00 29° SE 13:17:51 36° E 13:23:17 10° NNE
GENESIS II 4.1 13:17:09 33° S 13:18:38 57° ESE 13:22:28 10° NE
H-2A R/B 3.0 13:18:05 27° E 13:19:14 29° ENE 13:23:44 10° NNE
ATLAS 2AS CENTAUR R/B 3.1 13:12:14 10° S 13:19:24 53° ESE 13:27:07 10° NE
Cosmos 2056 Rocket 3.5 13:14:37 10° NNW 13:19:48 85° WSW 13:22:40 28° S
ARGOS 3.7 13:19:30 31° ESE 13:21:11 40° ENE 13:26:12 10° N
Cosmos 1953 2.4 13:17:13 10° N 13:21:12 75° W 13:22:59 31° S
Meteor 2-5 Rocket 3.8 13:16:54 19° S 13:21:12 64° E 13:27:04 10° NNE
NOAA 11 4.2 13:17:36 21° S 13:21:20 82° WSW 13:26:46 10° NNW
Cosmos 1707 3.6 13:18:09 10° SSW 13:21:54 49° W 13:25:40 10° N
Cosmos 1624 Rocket 4.2 13:19:40 10° NNW 13:24:58 70° WSW 13:27:59 26° S
Cosmos 1844 Rocket 3.1 13:27:12 38° SE 13:28:04 40° ESE 13:33:19 10° NE
ASTRO E2 3.4 13:25:12 10° W 13:28:53 37° SSW 13:29:05 37° SSW
Cosmos 1269 Rocket 4.0 13:33:48 41° SSE 13:35:24 60° ESE 13:40:37 10° NNE
MetOp-A 4.3 13:35:58 45° ESE 13:37:13 55° ENE 13:42:26 10° N
SWIFT 4.2 13:35:01 10° WSW 13:37:16 19° SSW 13:37:16 19° SSW
DMSP B5D2-2 4.4 13:33:11 10° NNE 13:38:08 43° E 13:38:08 43° E
Hubble Space Telescope 0.6 13:35:25 10° WNW 13:39:33 85° SSW 13:39:39 83° SSE
ATLAS 3B CENTAUR R/B 4.1 13:19:32 10° SW 13:40:23 50° SSE 13:45:11 31° ESE
Cosmos 1400 Rocket 4.5 13:38:38 10° SW 13:42:19 33° W 13:45:59 10° NNW
Cosmos 2285 Rocket 3.9 13:39:24 17° S 13:44:22 84° ESE 13:50:42 10° NNE
SL-8 R/B 4.3 13:48:00 10° WSW 13:52:44 56° NW 13:57:28 10° NE
USA 215 3.4 13:50:32 40° SSE 13:52:56 65° SW 13:59:27 10° NW
Resurs 01 Rocket 4.1 14:01:34 11° SW 14:04:09 17° W 14:06:58 10° WNW
SL-08 RB Rocket 3.7 14:05:03 80° NNW 14:05:03 80° NNW 14:09:28 10° NNW
Timation 1 Rocket 4.2 14:04:19 61° S 14:05:26 82° ESE 14:11:25 10° NNE
S3M 4.5 14:07:17 44° ENE 14:07:17 44° ENE 14:12:45 10° NNE
Palapa 6 Rocket 3.9 14:01:39 10° WSW 14:07:36 67° S 14:07:57 66° SSE
Meteor 1-16 Rocket 4.4 14:03:37 10° NNW 14:09:09 66° W 14:10:18 53° SSW
Cosmos-2242 4.3 14:08:14 10° N 14:10:55 34° NNE 14:10:55 34° NNE
Cosmos 1953 Rocket 4.4 14:12:57 44° W 14:13:07 44° W 14:17:17 10° N
Terra 3.8 14:16:09 17° NE 14:16:09 17° NE 14:17:58 10° NNE
Aurora 2 Rocket 4.0 14:10:59 10° WSW 14:18:19 74° SSE 14:21:34 45° E
Nadezhda 2 Rocket 4.3 14:14:28 10° N 14:20:43 89° W 14:21:08 80° S
USA 245 4.2 14:22:06 84° SW 14:22:13 85° WSW 14:28:30 10° NNW
ERS-1 Rocket 3.3 14:26:49 64° NW 14:26:49 64° NW 14:31:13 10° NNW
Centaur D-1AR AC-36 3.2 14:19:46 10° W 14:28:45 41° SW 14:28:45 41° SW
Cosmos 1553 Rocket 3.8 14:32:25 83° NNW 14:32:25 83° NNW 14:38:15 10° N
H-2A R/B (2) 4.4 14:34:48 42° ESE 14:34:48 42° ESE 15:00:49 10° ENE
SPOT 5 3.7 14:36:09 49° N 14:36:09 49° N 14:39:52 10° N
Cosmos 2278 Rocket 3.7 14:46:09 26° NE 14:46:09 26° NE 14:48:38 10° NNE
H-2A R/B 3.9 14:58:43 23° W 14:58:43 23° W 15:02:37 10° NW
ATLAS 3B R/B 4.0 14:53:23 10° N 14:58:16 26° NE 14:58:16 26° NE
CENTAUR R/B 4.4 16:03:55 10° N 16:10:53 29° NE 16:11:29 29° ENE
ADEOS Rocket 4.4 16:11:24 10° NNE 16:14:26 33° NNE 16:14:26 33° NNE
USA 234 4.4 16:11:16 10° NNE 16:15:05 37° NNE 16:15:05 37° NNE
ATLAS 3B R/B 4.5 16:43:22 10° NW 16:45:30 21° NW 16:45:30 21° NW
Cosmos 2369 Rocket 4.5 17:03:24 19° NNE 17:03:24 19° NNE 17:04:57 10° NNE
Cosmos 1943 Rocket 4.1 17:55:24 25° N 17:55:24 25° N 17:57:40 10° N
CENTAUR R/B 4.1 17:53:48 10° NW 17:58:37 37° NW 17:58:37 37° NW
CZ-2D R/B 4.0 18:08:55 10° NNE 18:11:31 25° NE 18:11:31 25° NE
ATLAS 2A CENTAUR R/B 4.2 18:22:16 44° SE 18:22:16 44° SE 18:28:04 10° E
Milstar 3 Cent rocket 4.3 18:34:40 44° WSW 18:42:44 83° SSE 18:53:06 10° ENE
Resurs 1-4 Rocket 3.2 18:42:29 10° NNE 18:45:57 42° NNE 18:45:57 42° NNE
Cosmos 1821 Rocket 4.1 18:54:25 10° N 19:00:25 74° NE 19:00:25 74° NE
Cosmos 44 4.4 19:10:11 38° NE 19:10:11 38° NE 19:13:16 10° NNE
ARIANE 5 R/B 2.9 19:17:13 10° N 19:21:07 55° N 19:21:07 55° N
Cosmos 967 Rocket 4.3 19:25:04 81° SW 19:25:23 86° WNW 19:31:53 10° NNE
GPS 2-04 Rocket1 4.1 19:31:16 38° NE 19:31:16 38° NE 19:33:52 10° ENE
SL-16 R/B 2.7 19:30:54 54° WNW 19:30:54 54° WNW 19:36:11 10° NNW
Cosmos 1763 Rocket 4.1 19:26:14 10° NNW 19:29:46 45° NNW 19:29:46 45° NNW
SEDSat Delta rocket 4.0 19:34:56 39° ENE 19:34:56 39° ENE 19:37:50 10° E
Cosmos 292 Rocket 4.0 19:30:05 10° NNW 19:34:10 63° N 19:34:10 63° N
Lacrosse 4 Rocket 4.0 19:38:31 12° NW 19:38:31 12° NW 19:39:27 10° NNW
ADEOS 3.4 19:36:35 10° NNE 19:41:49 82° ESE 19:42:15 74° SSE
Cosmos 1697 Rocket 4.4 19:40:59 18° SE 19:43:44 26° ESE 19:48:22 10° NE
ATLAS 5 CENTAUR R/B 3.9 19:43:31 30° WNW 19:45:01 35° NW 19:56:57 10° NNE
Cosmos 1814 Rocket 4.4 19:40:36 10° NNW 19:44:43 49° WNW 19:44:43 49° WNW
Cosmos 2221 Rocket 3.6 19:43:04 10° N 19:47:10 76° N 19:47:10 76° N
Cosmos 389 Rocket 3.5 19:49:57 47° NE 19:49:57 47° NE 19:52:46 10° NNE
Cosmos 540 Rocket 3.9 19:47:04 10° N 19:52:08 60° ENE 19:55:27 21° SSE
CZ-2D R/B 3.8 19:49:46 10° NNW 19:52:51 19° WNW 19:52:51 19° WNW
ATLAS CENTAUR R/B 1.7 19:55:56 52° N 19:55:56 52° N 19:58:57 10° NNE
Cosmos 2369 4.0 19:53:47 40° SSE 19:55:37 59° ESE 20:01:10 10° NNE
Cosmos 1818 3.4 19:51:16 10° NNW 19:56:42 68° WSW 19:57:28 59° SSW
Cosmos 1605 Rocket 3.8 19:50:39 10° N 19:56:44 79° W 19:58:57 42° S
Meteor 1-27 Rocket 3.8 19:51:19 10° NNW 19:57:05 65° W 19:58:12 53° SW
UNKNOWN OBJECT B 3.6 19:54:16 10° N 19:57:21 44° NW 19:57:21 44° NW
CZ-2D R/B 4.1 19:55:19 10° N 19:58:42 44° NW 19:58:42 44° NW
Cosmos 841 Rocket 3.5 19:55:12 10° NNW 20:00:08 56° W 20:00:08 56° W
ADEOS II 2.0 19:55:19 10° NNE 20:00:35 89° WNW 20:01:58 51° SSW
Cosmos 2219 3.7 19:57:14 10° N 20:02:47 59° ENE 20:08:17 10° SSE
Cosmos 1980 Rocket 4.1 20:05:02 10° SSE 20:09:23 24° ESE 20:13:45 10° NE
Cosmos 1633 3.2 20:12:59 41° NW 20:12:59 41° NW 20:15:44 10° N
Cosmos 1153 Rocket 4.4 20:09:52 10° N 20:16:09 84° W 20:21:15 17° S
CZ-3A R/B 4.2 20:09:14 10° NW 20:22:46 47° WSW 20:28:51 10° S
Cosmos 836 Rocket 4.5 20:18:10 10° NNW 20:23:29 90° NNW 20:28:46 10° SSE
Cosmos 2278 3.6 20:21:05 33° SSW 20:23:42 84° WNW 20:29:22 10° NNE
Stardust Del rocket 4.3 20:22:43 39° WSW 20:24:34 66° S 20:33:56 10° E
GPS 2-12 Rocket1 4.3 20:27:10 25° S 20:27:45 26° SSE 20:31:42 10° ESE
Helios 1A Rocket 4.3 20:26:30 10° NNW 20:29:31 22° WNW 20:29:31 22° WNW
Cosmos 2297 Rocket 3.8 20:26:48 10° N 20:31:59 36° ENE 20:37:08 10° SE
COSMOS 2455 2.8 20:27:27 10° NNW 20:33:22 61° WSW 20:39:15 10° S
Cosmos 44 Rocket 4.5 20:32:21 24° W 20:33:35 26° WNW 20:37:43 10° N
Cosmos 1602 4.2 20:31:29 18° SSE 20:34:10 57° E 20:37:57 10° NNE
Cosmos 1777 Rocket 4.3 20:31:07 18° S 20:34:57 67° ESE 20:40:07 10° NNE
ATLAS 2A CENTAUR R/B 2.7 20:29:24 21° WSW 20:36:53 83° SSE 20:41:49 10° E
Cosmos 1733 Rocket 4.0 20:37:46 27° W 20:38:15 28° W 20:41:58 10° NNW
Cosmos 1812 3.1 20:36:13 10° NNW 20:39:52 41° W 20:40:50 34° SW
Cosmos 2227 Rocket 3.2 20:34:40 10° N 20:40:10 50° ENE 20:45:37 10° SE
Meteor 1-20 Rocket 4.4 20:37:54 26° SW 20:40:54 52° W 20:46:25 10° N
ASC 2 Rocket 4.5 20:39:35 27° SW 20:41:45 35° SSW 20:48:31 10° SE
CZ-4B R/B 3.3 20:38:26 10° NNE 20:42:34 65° E 20:46:32 12° S
Okean 3 3.3 20:39:52 10° N 20:44:04 86° W 20:48:17 10° S
Cosmos 2173 Rocket 3.9 20:47:13 10° N 20:53:16 73° W 20:59:20 10° S
Cosmos 1908 Rocket 3.8 20:50:35 20° SSW 20:53:30 53° W 20:57:51 10° N
Shenzhou-11 Module 2.0 20:56:02 29° WSW 20:57:18 67° NW 21:00:14 10° NE
Cosmos 1674 Rocket 3.6 20:53:33 10° NNW 20:57:44 52° W 21:01:55 10° S
GEOS 3 Rocket 4.0 20:53:48 10° NNE 20:58:51 48° NW 21:02:36 17° SW
Meteor 1-18 Rocket 4.1 20:53:34 10° N 20:59:10 75° W 21:04:42 10° S
GPS 2-14 Rocket1 3.5 20:58:02 22° SW 20:59:55 33° S 21:03:39 10° ESE
Geosat 4.0 20:56:26 10° NNE 21:01:26 69° WNW 21:05:50 13° SSW
Genesis I 3.2 21:03:41 10° NNW 21:07:45 80° WSW 21:11:43 10° SSE
PSLV R/B 4.0 21:05:30 10° N 21:09:31 60° WNW 21:13:35 10° SSW
PAYLOAD B 4.4 21:05:00 10° NNE 21:10:30 76° ESE 21:15:59 10° S
Cosmos 2360 4.2 21:05:14 10° SSW 21:10:54 82° WNW 21:16:37 10° NNE
Okean 1 3.4 21:08:38 10° NNW 21:12:30 55° W 21:16:22 10° S
Atlas Centaur 2 2.8 21:09:33 12° SSW 21:12:55 32° SSE 21:17:32 10° E
Cosmos 2082 3.9 21:08:10 10° NNW 21:13:48 75° ENE 21:19:24 10° SSE
Cosmos 1975 Rocket 3.8 21:12:00 10° N 21:16:25 57° E 21:20:48 10° SSE
Cosmos 1536 3.4 21:13:45 10° S 21:17:45 62° E 21:21:46 10° NNE
Cosmos 2322 Rocket 4.1 21:13:09 10° SSE 21:17:51 28° ESE 21:22:33 10° NE
Cosmos 1340 Rocket 3.7 21:14:39 10° N 21:18:29 52° E 21:22:17 10° SSE
SEDSat Delta rocket 3.3 21:15:50 10° W 21:19:43 41° SSW 21:23:57 10° SE
Cosmos 2016 Rocket 4.1 21:15:09 10° NNW 21:21:24 61° W 21:27:35 10° S
SL-08 R/B 4.5 21:15:50 10° N 21:21:59 75° W 21:28:13 10° S
Meteor 1-19 Rocket 4.3 21:16:40 10° N 21:22:11 83° E 21:27:42 10° S
Okean O Rocket 1.6 21:18:14 10° N 21:22:42 81° W 21:27:08 10° SSW
Cosmos 1271 Rocket 4.0 21:19:52 11° SW 21:22:54 25° W 21:26:12 10° NNW
Milstar 3 Cent rocket 3.5 21:10:26 10° W 21:23:43 75° N 21:30:04 10° E
Cosmos 1802 Rocket 4.3 21:18:09 10° NNW 21:24:01 46° W 21:29:50 10° SSW
ATLAS 3B CENTAUR R/B 1.8 21:25:53 11° SW 21:26:36 13° SSW 21:27:45 10° SSE
Sich 1 Rocket 4.5 21:22:37 10° SW 21:26:36 31° W 21:30:34 10° NNW
Cosmos 2061 Rocket 4.4 21:20:49 10° NNW 21:26:39 44° W 21:32:34 10° SSW
Cosmos 1697 Rocket 3.8 21:22:44 10° SW 21:27:29 28° WNW 21:32:19 10° N
Meteor 1-11 Rocket 3.7 21:22:13 10° SSW 21:27:41 72° W 21:33:13 10° N
Meteosat 1 Rocket2 2.7 21:24:46 10° W 21:29:00 83° NNW 21:32:36 10° ENE
USA 229 DEB 4.2 21:22:57 10° NW 21:29:50 44° WSW 21:36:48 10° S
USA 229 4.2 21:23:03 10° NW 21:29:56 45° WSW 21:36:56 10° S
NOSS 2-1 (C) 3.3 21:29:30 10° SW 21:33:10 53° WNW 21:36:44 10° NNE
NOSS 2-1 (D) 3.4 21:30:51 10° SW 21:34:30 50° WNW 21:38:02 10° NNE
ATLAS CENTAUR Rocket 3.4 21:31:39 10° W 21:36:16 81° N 22:00:03 10° E
IRS-1C Rocket 4.3 21:35:59 10° NNE 21:41:16 83° ESE 21:46:31 10° S
